Riverside, CA

1:51 PM PST on February 06, 2016 (GMT -0800)
Riverside Municipal

Weather History for KRAL - July, 2014

Change the Weather History Date:

Wednesday, July 16, 2014

  Actual Average Record
Temperature  
Mean Temperature 78 °F 79 °F  
Max Temperature 88 °F 93 °F 108 °F (1935)
Min Temperature 68 °F 64 °F 49 °F (1923)
Degree Days  
Heating Degree Days 0 0  
Month to date heating degree days 0 0  
Since 1 June heating degree days 0 2  
Since 1 July heating degree days 0 0  
Cooling Degree Days 13 14  
Month to date cooling degree days 245 199  
Year to date cooling degree days 910 596  
Since 1 June cooling degree days 532 419  
Growing Degree Days 27 (Base 50)    
Moisture  
Dew Point 60 °F    
Average Humidity 57    
Maximum Humidity 78    
Minimum Humidity 35    
Precipitation  
Precipitation 0.00 in 0.01 in 0.05 in (1984)
Month to date precipitation 0.00 0.02  
Year to date precipitation 1.72 9.21  
Since 1 July precipitation 0.00  
Snow  
Snow 0.00 in - - ()
Month to date snowfall 0.0  
Year to date snowfall 0.0  
Snow Depth 0.00 in    
Sea Level Pressure  
Sea Level Pressure 29.97 in    
Wind  
Wind Speed 5 mph (West)    
Max Wind Speed 16 mph    
Max Gust Speed 24 mph    
Visibility 9 miles    
Events      
T = Trace of Precipitation, MM = Missing Value Source: NWS Daily Summary

Daily Weather History Graph

Daily Weather History Graph

Search for Another Location

Airport or City:

Trip Planner

Search our weather history database for the weather conditions in past years. The results will help you decide how hot, cold, wet, or windy it might be!

Date:

Astronomy

Jul. 16, 2014 Rise Set
Actual Time 5:50 AM PDT 8:00 PM PDT
Civil Twilight 5:22 AM PDT 8:29 PM PDT
Nautical Twilight 4:47 AM PDT 9:03 PM PDT
Astronomical Twilight 4:09 AM PDT 9:41 PM PDT
Moon 11:05 PM PDT (7/16) 10:43 AM PDT (7/16)
Length of Visible Light 15h 07m
Length of Day
14h 10m
Waning Gibbous, 75% of the Moon is Illuminated
Jul 16
Waning Gibbous
Jul 18
Last Quarter
Jul 26
New
Aug 3
First Quarter
Aug 10
Full

Hourly Weather History & Observations

Time (PDT) Temp. Heat Index Dew Point Humidity Pressure Visibility Wind Dir Wind Speed Gust Speed Precip Events Conditions
12:53 AM 68.0 °F - 61.0 °F 78% 30.00 in 10.0 mi West 4.6 mph - N/A   Overcast
1:53 AM 68.0 °F - 61.0 °F 78% 29.98 in 10.0 mi West 5.8 mph - N/A   Overcast
2:53 AM 68.0 °F - 61.0 °F 78% 29.97 in 10.0 mi West 3.5 mph - N/A   Overcast
3:53 AM 69.1 °F - 61.0 °F 75% 29.96 in 10.0 mi Calm Calm - N/A   Overcast
4:53 AM 69.1 °F - 61.0 °F 75% 29.96 in 10.0 mi West 4.6 mph - N/A   Overcast
5:53 AM 69.1 °F - 62.1 °F 78% 29.98 in 9.0 mi Variable 3.5 mph - N/A   Overcast
6:28 AM 69.1 °F - 62.1 °F 78% 30.03 in 7.0 mi Variable 3.5 mph - N/A   Overcast
6:53 AM 69.1 °F - 62.1 °F 78% 29.99 in 7.0 mi Calm Calm - N/A   Overcast
7:53 AM 69.1 °F - 62.1 °F 78% 30.01 in 6.0 mi Variable 3.5 mph - N/A   Haze
8:53 AM 69.1 °F - 62.1 °F 78% 30.03 in 7.0 mi Variable 3.5 mph - N/A   Overcast
9:08 AM 69.1 °F - 62.1 °F 78% 30.06 in 7.0 mi SW 3.5 mph - N/A   Overcast
9:53 AM 71.1 °F - 62.1 °F 73% 30.02 in 7.0 mi Calm Calm - N/A   Overcast
10:53 AM 73.9 °F - 62.1 °F 66% 30.02 in 7.0 mi Variable 4.6 mph - N/A   Scattered Clouds
11:53 AM 75.9 °F - 62.1 °F 62% 30.01 in 7.0 mi Variable 6.9 mph - N/A   Clear
12:53 PM 79.0 °F - 62.1 °F 56% 29.99 in 7.0 mi West 9.2 mph - N/A   Clear
1:53 PM 84.0 °F 84.0 °F 60.1 °F 44% 29.96 in 10.0 mi Variable 6.9 mph - N/A   Clear
3:53 PM 86.0 °F 84.5 °F 55.0 °F 35% 29.92 in 10.0 mi West 13.8 mph 21.9 mph N/A   Clear
4:53 PM 82.9 °F 82.8 °F 59.0 °F 44% 29.91 in 10.0 mi West 15.0 mph 21.9 mph N/A   Clear
5:53 PM 81.0 °F 81.1 °F 57.9 °F 45% 29.90 in 10.0 mi West 12.7 mph 21.9 mph N/A   Clear
6:53 PM 78.1 °F - 57.9 °F 50% 29.90 in 10.0 mi West 12.7 mph - N/A   Clear
7:53 PM 75.0 °F - 59.0 °F 57% 29.92 in 10.0 mi West 10.4 mph - N/A   Clear
8:53 PM 72.0 °F - 59.0 °F 64% 29.94 in 10.0 mi West 6.9 mph - N/A   Clear
9:53 PM 70.0 °F - 59.0 °F 68% 29.96 in 10.0 mi West 8.1 mph - N/A   Clear
10:53 PM 68.0 °F - 59.0 °F 73% 29.97 in 10.0 mi West 3.5 mph - N/A   Clear